Regional Weather Roundup
Issued by NWS Upton, NY

Current Version | Previous Version | Text Only | Print | Product List | Glossary Off
Versions: 1 2 3 4 5 6 7 8 9 10 11 12 13 14 15 16 17 18 19 20 21 22 23 24 25 26 27 28 29 30 31 32 33 34 35 36 37 38 39 40 41 42 43 44 45 46 47 48 49 50

000
ASUS41 KOKX 260011
RWROKX

Regional Weather Roundup
National Weather Service New York NY
800 PM EDT SUN SEP 25 2022

Note: "FAIR" indicates few or no clouds below 12,000 feet with no
significant weather and/or obstructions to visibility.

NYZ071-072-176-178-NJZ106-104-260100-
New York City Metro Area

CITY           SKY/WX    TMP DP  RH WIND       PRES   REMARKS
Central Park   PTCLDY    65  57  75 VRB5      29.66R
World Trd Ctr  NOT AVBL
Bronx Lehman C   N/A     66  57  72 SW6         N/A
LaGuardia Arpt PTCLDY    67  57  70 S12G17    29.64R
Queens College   N/A     64  59  82 SW12        N/A
Kennedy Intl   PTCLDY    66  60  81 S16       29.66R
Breezy Point     N/A     64 N/A N/A S7          N/A
Brooklyn Coll    N/A     64  59  82 S9          N/A
Staten Island    N/A     64  59  82 S2          N/A
Newark/Liberty MOCLDY    68  53  58 SW6       29.64R
Teterboro      PTCLDY    65  57  75 S9        29.62S
$$

NYZ177-179-078>081-260100-
Long Island New York

CITY           SKY/WX    TMP DP  RH WIND       PRES   REMARKS
Jones Beach      N/A     66 N/A N/A S7          N/A
Wantagh          N/A     66  61  82 S7          N/A
Hempstead      NOT AVBL
Matinecock Pt    N/A     66 N/A N/A S12         N/A
Farmingdale    PTCLDY    67  59  75 S15       29.65R
MacArthur/ISP  MOCLDY    68  60  75 S13       29.65R
Stony Brook      N/A     66  59  77 S6          N/A
Shirley        CLEAR     68  59  73 S14G21    29.65R
Mt Sinai Harb    N/A     68 N/A N/A S10         N/A
Westhampton    CLEAR     69  58  67 SW15G23   29.66R
East Hampton   FAIR      66  61  83 SW6       29.64R
Southold         N/A     66  61  82 SW7         N/A
Montauk          N/A     68  63  84 VRB7      29.65F
$$

NYZ052-065-067-260100-
Hudson Valley

CITY           SKY/WX    TMP DP  RH WIND       PRES   REMARKS
White Plains   PTCLDY    64  58  80 S6        29.63S
Larchmont Harb   N/A     66 N/A N/A S21         N/A
Croton On Huds   N/A     66 N/A N/A S7          N/A
Somers           N/A     63  55  77 SW6         N/A
Brewster         N/A     59  57  94 S2          N/A
Newburgh       MOCLDY    63  57  82 SW6       29.61R
Montgomery     CLOUDY    61  55  81 S8        29.60R
Otisville        N/A     59  55  88 SW2         N/A
Warwick          N/A     61  57  88 W3          N/A
Suffern          N/A     61  55  82 S2          N/A
Poughkeepsie   PTCLDY    64  55  72 CALM      29.59S
Albany         MOCLDY    63  58  83 S12       29.56R
$$

NJZ001-105-106-008-010-013-015-019>022-104-260100-
New Jersey

CITY           SKY/WX    TMP DP  RH WIND       PRES   REMARKS
Newark/Liberty MOCLDY    68  53  58 SW6       29.64R
Teterboro      PTCLDY    65  57  75 S9        29.62S
Caldwell       PTCLDY    64  55  72 S3        29.63S
Somerville     PTCLDY    58  57  97 CALM      29.61S FOG
Linden         MOCLDY    64  58  78 CALM      29.64S
Perth Amboy      N/A     63 N/A N/A E1          N/A
Sussex         PTCLDY    61  57  87 CALM      29.62S
Andover          N/A     59  55  87 S3        29.63S
Trenton        PTCLDY    60  60 100 S6        29.61F
Millville      PTCLDY    64  61  90 CALM      29.64F
Atlantic City  PTCLDY    67  61  81 S8        29.64F
Wrightstown    PTCLDY    61  61  99 S6        29.63F
Toms River     NOT AVBL
Belmar         PTCLDY    63  50  63 S5        29.65F
$$

PAZ047>061-062-071-260100-
Eastern Pennsylvania

CITY           SKY/WX    TMP DP  RH WIND       PRES   REMARKS
Philadelphia   MOCLDY    68  61  78 VRB3      29.62F
Allentown      TSTM      62  57  83 S8        29.62S
Scranton       CLOUDY    64  55  72 SW5       29.60R
$$

CTZ002-004>006-009-010-012-RIZ004-006-007-MAZ004-011-015-260100-
Southern New England

 In CT

CITY           SKY/WX    TMP DP  RH WIND       PRES   REMARKS
Bradley Intl   MOCLDY    66  59  78 S9        29.60F
Hartford       CLEAR     66  60  81 S8        29.60S
Danbury        CLEAR     65  57  75 S7        29.63S
Wtrbury/Oxford CLEAR     63  58  83 S9        29.64S
Norwalk Harbor   N/A     66 N/A N/A S16         N/A
Bridgeport     CLEAR     68  61  78 SW20      29.62S
Meriden        CLEAR     65  58  78 S6        29.61F
New Haven      PTCLDY    70  61  73 SW8       29.63S
Chester        FAIR      66  63  88 S7        29.63F
Groton         CLEAR     69  62  78 SW7       29.62F
Willimantic    CLOUDY    66  61  84 S8        29.63S

 In RI

CITY           SKY/WX    TMP DP  RH WIND       PRES   REMARKS
Providence     CLOUDY    67  62  84 S12       29.64S
Block Island   CLOUDY    66  62  87 SW12      29.65F
Westerly       CLEAR     68  63  84 SW9       29.64F

In MA

CITY           SKY/WX    TMP DP  RH WIND       PRES   REMARKS
Boston         CLOUDY    66  61  84 S9        29.63F
Worcester      MOCLDY    62  59  90 S9        29.63F
Westfield      PTCLDY    60  58  92 S5        29.59S
Provincetown   PTCLDY    65  62  90 S12G18    29.67F
Nantucket      CLEAR     69  64  84 S18       29.69F
$$

ANZ330-335-338-340-345-350-353-355-260100-
Coastal Marine Observations


STATION/POSITION TIME  SKY/WX   TEMP    WIND        PRES    VSBY  WAVE
                                AIR SEA DIR/SP/G                  HT/PER
                 (UTC)          (F)     (DEG/KT/KT) (MB)    (MI)  (FT/S)
NY Harb Entrance 2350               70  180/ 16/ 19 1002.9          5/ 6
20 S Fire Island 2350               69              1003.6          6/ 7
Great South Bay  NOT AVBL
23 SSW Montauk P 2350            69     200/ 21/ 25 1003.8          7/ 6
15 E Barnegat Li 2356               70                N/A           5/ 6
Hudson Canyon    2350            72 72  210/ 14/ 17 1005.3          8/ 8
Kings Point      2330            67 69  190/ 11/ 15 1003.6
Execution Rocks  2345            68 71  190/ 14       N/A
Western LI Sound 2345            68     190/ 14/ 17   N/A
Central LI Sound NOT AVBL
Robbins Reef     2330            66     210/  9/ 12 1003.3
$$


>>>>>>>>>>>>>>>>>>>>>>>>>>>> KEY <<<<<<<<<<<<<<<<<<<<<<<<<<<
>                                                          <
>     SKY/WX - Sky Condition/Present Weather               <
>     TMP    - Temperature in Fahrenheit                   <
>     DP     - Dew Point in Fahrenheit                     <
>     RH     - Relative Humidity in Percent                <
>     WIND   - Direction (from) and Speed in MPH           <
>     PRES   - Mean Sea Level Pressure (inches of Hg)      <
>     WCI    - Wind Chill Index                            <
>     VSB    - Visibility in Miles                         <
>     HX     - Heat Index                                  <
>     TC     - Temperature in Celsius                      <
>     VRB    - Variable Wind Direction                     <
>                                                          <
>>>>>>>>>>>>>>>>>>>>>>>>>>>> KEY <<<<<<<<<<<<<<<<<<<<<<<<<<<



USA.gov is the U.S. government's official web portal to all federal, state and local government web resources and services.